Location: Unspecified
(0.0000°N, 0.0000°E)
Time: 11:21:37
(UTC+00:00)

Courier 1B - Pass Details

Date: 27 November 2019
Orbit: 963 x 1209 km, 28.3° (Epoch: 14 December)

Event Time Altitude Azimuth Distance (km) Brightness Sun altitude
Rises 00:45:52 0° 268° (W) 4,104 - -64.6°
Reaches altitude 10° 00:49:18 10° 280° (W) 3,140 - -64.1°
Maximum altitude 00:55:32 26° 333° (NNW) 2,169 - -63.2°
Drops below altitude 10° 01:01:40 10° 26° (NNE) 3,072 - -62.2°
Sets 01:05:00 0° 39° (NE) 3,999 - -61.7°
